Terminal Aerodrome Forecast
Issued by NWS Wichita, KS

Home | Current Version | Previous Version | Graphics & Text | Print | Product List | Glossary On
Versions: 1 2 3 4 5 6 7 8 9 10 11 12 13 14 15 16
000
FTUS43 KICT 251919 AAA
TAFICT
TAF AMD
KICT 251919Z 2519/2618 33027G38KT P6SM BKN040
     FM252300 34018KT P6SM SCT060
     FM260100 33009KT P6SM SCT120
     FM260500 VRB05KT P6SM SKC
     FM261000 24006KT P6SM SKC
     FM261200 22008KT P6SM SCT050
     FM261600 25012KT P6SM SCT050=

USA.gov is the U.S. government's official web portal to all federal, state and local government web resources and services.